Regional Weather Roundup
Issued by NWS

Home | Current Version | Previous Version | Graphics & Text | Print | Product List | Glossary On
Versions: 1 2 3 4 5 6 7 8 9 10 11 12 13 14 15 16 17 18 19 20 21 22 23 24 25 26 27 28 29 30 31 32 33 34 35 36 37 38 39 40 41 42 43 44 45 46 47 48 49 50
000
ASUS43 KMPX 190001
RWRMN
WEATHER ROUNDUP FOR MINNESOTA
NATIONAL WEATHER SERVICE TWIN CITIES/CHANHASSEN MN
600 PM CST SAT NOV 18 2017


NOTE: "FAIR" INDICATES FEW OR NO CLOUDS BELOW 12,000 FEET WITH NO
SIGNIFICANT WEATHER AND/OR OBSTRUCTIONS TO VISIBILITY. N/A MEANS
CURRENT SKY AND/OR WEATHER CONDITIONS ARE NOT AVAILABLE.

MNZ060>063-068>070-190100-
   Twin Cities Metro

CITY           SKY/WX    TMP DP  RH WIND       PRES   REMARKS
TWIN CITIES    PTCLDY    28  17  63 NW16      29.96R WCI  16
6HR MIN TEMP:  28; 6HR MAX TEMP:  37;

ST PAUL        MOCLDY    28  17  63 NW20G25   29.97R WCI  15
CRYSTAL        CLEAR     27  12  53 NW16G28   29.96R WCI  15
BLAINE         PTCLDY    28  18  64 NW14G20   29.95  WCI  17
LAKEVILLE      CLEAR     27  18  69 NW17G23   29.95R WCI  14
EDEN PRAIRIE   PTCLDY    29  16  58 NW17G25   29.96R WCI  17
6HR MIN TEMP:  29; 6HR MAX TEMP:  37;

SOUTH ST PAUL  CLEAR     29  17  59 NW13G22   29.96R WCI  19
LAKE ELMO      FAIR      28  19  69 NW14G21   29.95R WCI  17
$$
MNZ001>005-007-008-013>017-022>024-027-028-190100-
   Northwest Minnesota

CITY           SKY/WX    TMP DP  RH WIND       PRES   REMARKS
BEMIDJI        FLURRIES  15   8  76 W13       29.98R WCI   0
HALLOCK        CLOUDY    12   7  79 NW8       30.03R WCI   1
ROSEAU         PTCLDY    16   9  73 W8        29.97F WCI   5
WARROAD        CLOUDY    16   9  73 W9        29.97R WCI   4
CROOKSTON      CLEAR     18  10  73 W12       30.05S WCI   5
FOSSTON        CLEAR     12   7  79 W8        30.01S WCI   1
DETROIT LAKES  CLEAR     18  10  73 NW10      30.04R WCI   6
MOORHEAD       CLEAR     18   7  62 NW12      30.09R WCI   5
PARK RAPIDS    PTCLDY    15   9  76 NW9       29.98R WCI   3
MAHNOMEN       FAIR      14   8  76 NW7       30.02S WCI   4
$$
MNZ006-009>011-018-025>026-190100-
   North Central Minnesota

CITY           SKY/WX    TMP DP  RH WIND       PRES   REMARKS
BAUDETTE       CLOUDY    15   8  73 W12       29.95R WCI   2
FLAG ISLAND    CLOUDY    14   9  79 W10       29.94R WCI   1
INTL FALLS     CLOUDY    16   7  67 NW10G18   29.92R HAZE    WCI   4
6HR MIN TEMP:  16; 6HR MAX TEMP:  22; 6HR PCP: TRACE;

WASKISH        FLURRIES  16  10  79 W14       29.97R WCI   1
BIG FORK       FLURRIES  18   9  68 W8        29.93R WCI   7
LONGVILLE      MOCLDY    18  10  73 W9G22     29.97R WCI   6
GRAND RAPIDS   FLURRIES  17  10  74 NW14      29.95R WCI   3
CRANE LAKE     LGT SNOW  16  10  79 W3        29.92R
ORR            FLURRIES  16   9  73 W12G17    29.88R WCI   3
COOK           FLURRIES  16   9  73 NW7       29.90R WCI   6
WALKER         FAIR      14   8  75 W12G17    29.97R WCI   0
$$
MNZ012-019>021-037-190100-
   Northeast Minnesota

CITY           SKY/WX    TMP DP  RH WIND       PRES   REMARKS
DULUTH         CLOUDY    21  13  71 NW20G28   29.86R WCI   6
6HR MIN TEMP:  21; 6HR MAX TEMP:  26;

ELY            LGT SNOW  18  10  73 NW10G22   29.85R WCI   6
HIBBING        MIX PCPN  16   9  74 NW22      29.90R WCI  -2
EVELETH        FLURRIES  18   9  68 NW13G23   29.89R WCI   4
DULUTH HARBOR  CLOUDY    27  18  69 W13G20    29.92R WCI  16
TWO HARBORS    MOCLDY    25  16  68 W7        29.84R WCI  17
GRAND MARAIS     N/A     25  16  68 VRB5      29.84R WCI  19
G MARAIS ARPRT LGT SNOW  18  10  73 NW13G20   29.75S WCI   4
$$
MNZ029>031-032-039>041-046>048-054>057-064-190100-
   West Central Minnesota

CITY           SKY/WX    TMP DP  RH WIND       PRES   REMARKS
FERGUS FALLS   CLEAR     18   9  68 NW14      30.09R WCI   4
WHEATON        CLEAR     21   7  53 NW10      30.11R WCI  10
MORRIS         CLEAR     21  10  63 NW15      30.06R WCI   8
ALEXANDRIA     CLEAR     20  12  71 NW16G23   30.02R WCI   6
ELBOW LAKE     FAIR      20  10  67 W12G18    30.06R WCI   7
WADENA         CLEAR     16  10  79 NW13      30.00S WCI   2
GLENWOOD       CLEAR     21  12  68 NW20G28   30.03R WCI   6
APPLETON       CLEAR     25  12  58 NW13      30.08  WCI  13
BENSON         CLEAR     21  10  63 N14G23    30.08R WCI   8
ORTONVILLE     CLEAR     25  10  54 MISG      30.08R
MADISON        PTCLDY    27  14  59 NW14      30.09R WCI  15
WILLMAR        FAIR      25  16  68 NW20G25   30.04R WCI  11
$$
MNZ033>034-036-042>043-049>051-058-059-190100-
   Central Minnesota

CITY           SKY/WX    TMP DP  RH WIND       PRES   REMARKS
ST CLOUD       PTCLDY    21  12  68 NW17G28   30.00R WCI   7
6HR MIN TEMP:  21; 6HR MAX TEMP:  31;

SAUK CENTRE    FAIR      20  12  69 NW13      30.02R WCI   8
PAYNESVILLE    CLEAR     22  15  75 NW12      30.02R WCI  11
AITKIN         PTCLDY    18  10  73 NW9G18    29.94R WCI   6
PINE RIVER     MOCLDY    16   9  73 W7        30.01R WCI   6
BRAINERD       PTCLDY    20  10  65 NW17G24   29.98R WCI   5
STAPLES        CLEAR     16   9  73 NW8       30.00R WCI   5
LONG PRAIRIE   FAIR      19  12  73 W13       30.01R WCI   7
LITTLE FALLS   CLEAR     19   7  58 NW10      30.01R WCI   8
LITCHFIELD     CLEAR     25  16  68 NW16G23   30.02R WCI  12
BUFFALO        CLEAR     26  13  59 W16G25    30.01R WCI  13
MAPLE LAKE     CLEAR     25  15  65 NW15G24   30.01R WCI  13
HUTCHINSON     CLOUDY    25  16  68 NW14G26   30.03R WCI  13
$$
MNZ037-044-045-052-053-190100-
   East Central Minnesota

CITY           SKY/WX    TMP DP  RH WIND       PRES   REMARKS
PRINCETON      PTCLDY    25  14  63 W15       29.98R WCI  12
MORA           CLOUDY    25  16  68 NW13      29.97R WCI  13
CAMBRIDGE      PTCLDY    27  16  63 NW9       29.97R WCI  17
RUSH CITY      CLOUDY    26  16  66 NW8G18    29.95R WCI  17
MOOSE LAKE     CLOUDY    23  14  68 NW14G20   29.91R WCI  11
HINCKLEY       MOCLDY    25  16  68 NW9G17    29.94R WCI  15
CLOQUET        FLURRIES  21  12  68 W14G22    29.89R WCI   8
MCGREGOR       CLOUDY    21  14  73 NW12      29.94R WCI   9
$$
MNZ071>073-080-081-089-090-097-098-190100-
   Southwest Minnesota

CITY           SKY/WX    TMP DP  RH WIND       PRES   REMARKS
MONTEVIDEO     CLEAR     25  12  58 N15G21    30.07R WCI  12
GRANITE FALLS  CLEAR     27  16  65 NW17G23   30.08R WCI  14
CANBY          CLEAR     27  13  54 W15G21    30.09R WCI  15
MARSHALL       CLEAR     27  13  55 NW18      30.06R WCI  14
REDWOOD FALLS  CLEAR     26  12  55 NW12G17   30.05R WCI  16
OLIVIA         CLEAR     27  18  69 NW12      30.04R WCI  16
PIPESTONE      CLEAR     28  14  54 NW16      30.05R WCI  17
WINDOM         CLEAR     27  10  50 NW17      30.03R WCI  14
WORTHINGTON    CLEAR     28  16  60 NW15      30.04R WCI  16
JACKSON        CLEAR     28  18  64 NW16      30.03R WCI  17
SLAYTON        CLEAR     28  15  59 NW21      30.04R WCI  14
$$
MNZ065>067-074>077-082>085-091>093-190100-
   South Central Minnesota

CITY           SKY/WX    TMP DP  RH WIND       PRES   REMARKS
MANKATO        CLEAR     26  17  68 NW18G30   30.01R WCI  13
NEW ULM        PTCLDY    25  14  63 NW14G24   30.03R WCI  13
ST JAMES       PTCLDY    27  16  63 NW17G26   30.03R WCI  14
FAIRMONT       CLEAR     27  17  66 NW18      30.02R WCI  14
GLENCOE        PTCLDY    27  17  65 NW24G32   30.00R WCI  12
FARIBAULT      CLEAR     28  19  69 NW10G21   29.96R WCI  19
OWATONNA       CLEAR     28  19  69 NW21      29.96R WCI  15
WASECA         CLEAR     28  19  69 NW22G28   29.99R WCI  15
ALBERT LEA     CLEAR     27  18  69 NW14G21   29.96R WCI  15
$$
MNZ078>079-086>088-094>096-190100-
   Southeast Minnesota

CITY           SKY/WX    TMP DP  RH WIND       PRES   REMARKS
ROCHESTER      CLEAR     29  22  75 NW18      29.90R WCI  16
6HR MIN TEMP:  29; 6HR MAX TEMP:  39;

RED WING       CLEAR     30  18  59 NW9       29.92R WCI  22
STANTON        CLEAR     30  19  65 NW10      29.94R WCI  21
DODGE CENTER   CLEAR     28  19  69 NW17G24   29.92R WCI  16
WINONA         CLOUDY    34  23  64 NW18G28   29.88R WCI  23
AUSTIN         CLEAR     28  19  69 NW15G23   29.94R WCI  17
PRESTON        MOCLDY    30  21  71 NW17      29.89R WCI  18
$$
ABBREVIATIONS USED IN REMARKS
   TC - TEMPERATURES IN CELSIUS
  WCI - WIND CHILL INDEX
   HX - HEAT INDEX
  VSB - VISIBILITY
$$



USA.gov is the U.S. government's official web portal to all federal, state and local government web resources and services.